Regional Weather Roundup
Issued by NWS

Home | Current Version | Previous Version | Text Only | Print | Product List | Glossary On
Versions: 1 2 3 4 5 6 7 8 9 10 11 12 13 14 15 16 17 18 19 20 21 22 23 24 25 26 27 28 29 30 31 32 33 34 35 36 37 38 39 40 41 42 43 44 45 46 47 48 49 50
000
ASUS43 KDTX 041410
RWRMI
MICHIGAN HOURLY REGIONAL WEATHER ROUNDUP
NATIONAL WEATHER SERVICE DETROIT/PONTIAC MI
1000 AM EDT FRI SEP 04 2015

NOTE: "FAIR" INDICATES FEW OR NO CLOUDS BELOW 12,000 FEET WITH NO
SIGNIFICANT WEATHER AND/OR OBSTRUCTION TO VISIBILITY.

MIZ047>049-052>055-059>063-066>070-074>076-081>083-041500-
SOUTHEAST LOWER MICHIGAN

CITY           SKY/WX    TMP DP  RH WIND       PRES   REMARKS
ADRIAN         CLOUDY    70  67  90 VRB3      30.02S FOG
ALMA           FOG       68  68 100 CALM      30.01S VSB 1/2
ANN ARBOR      CLOUDY    69  66  90 S3        30.02R
BAD AXE        LGT RAIN  68  68  99 SE5       30.05S
DETROIT CITY   CLOUDY    73  67  81 S6        30.03R
DETROIT        MOSUNNY   75  68  78 S7        30.02S
FLINT          CLOUDY    74  67  78 S9        30.01S
GROSSE ILE     MOSUNNY   73  68  83 S13       30.01R
HILLSDALE      CLOUDY    71  70  97 W6        30.03R FOG
HOWELL         CLOUDY    68  67  95 S6        30.02S FOG

CITY           SKY/WX    TMP DP  RH WIND       PRES   REMARKS
JACKSON        CLOUDY    69  65  86 VRB3      30.02R
LAMBERTVILLE   MOSUNNY   75  69  79 S5        30.01S
LANSING        CLOUDY    69  67  93 SW6       30.01S FOG
LAPEER         NOT AVBL
MASON          CLOUDY    69  65  89 CALM      30.01S FOG
MONROE         CLOUDY    73  67  82 S6        30.01S
MT. CLEMENS    PTSUNNY   74  70  85 SE12      30.02R
PONTIAC        CLOUDY    70  67  90 SE6       30.02S
PORT HOPE        N/A     72  68  87 SE10      30.03R
PORT HURON     CLOUDY    72  70  94 S3        30.04R
TRI CITIES     CLOUDY    70  68  93 SE6       30.02R FOG
YPSILANTI      CLOUDY    75  68  78 SW6       30.02S
$$
MIZ043>046-050>051-056>058-064>065-071>073-077>080-041500-
SOUTHWEST LOWER MICHIGAN

CITY           SKY/WX    TMP DP  RH WIND       PRES   REMARKS
BATTLE CREEK   CLOUDY    72  65  78 SW6       30.03R
BENTON HARBOR  CLOUDY    72  65  78 CALM      30.02R
BIG RAPIDS     CLOUDY    68  67  97 E6        30.01S
COLDWATER      CLOUDY    69  67  93 N3        30.03R FOG
HOLLAND        CLOUDY    71  66  84 W3        30.02R
GRAND RAPIDS   CLOUDY    70  67  90 SW5       30.01R
KALAMAZOO      CLOUDY    72  64  76 CALM      30.02R
MARSHALL       CLOUDY    71  66  84 SW6       30.02R
MUSKEGON       CLOUDY    73  65  75 NW3       30.01R
$$
MIZ016>042-041500-
NORTHERN LOWER MICHIGAN

CITY           SKY/WX    TMP DP  RH WIND       PRES   REMARKS
ALPENA         CLOUDY    70  68  93 SE9       30.06S
BEAVER ISLAND  MOSUNNY   69  60  74 E12       30.06R
BELLAIRE       CLOUDY    69  65  88 N5        30.03S
CADILLAC       CLOUDY    67  66  96 E6        30.03S FOG
CHARLEVOIX     CLOUDY    69  63  81 E6        30.07S
FRANKFORT      MOSUNNY   71  67  87 CALM      30.01S
GAYLORD        CLOUDY    68  67  96 E5        30.05S
GRAYLING       CLOUDY    67  66  94 E9        30.05S
HARBOR SPRINGS PTSUNNY   69  63  81 E9        30.04S
HOUGHTON LAKE  CLOUDY    68  66  93 E9        30.04R
MANISTEE       CLOUDY    68  63  83 E6        30.02S
OSCODA         CLOUDY    69  68  97 E7        30.05R FOG
PELLSTON       CLOUDY    69  62  78 E9        30.06S
TRAVERSE CITY  CLOUDY    71  66  84 NE7       30.02R
$$
MIZ007>008-015-041500-
EASTERN UPPER MICHIGAN

CITY           SKY/WX    TMP DP  RH WIND       PRES   REMARKS
KINROSS        MOSUNNY   70  63  78 E17G23    30.07S
MACKINAC ISLAN CLOUDY    67  60  78 E14G20    30.06S
NEWBERRY       SUNNY     69  59  71 E7        30.07S
S. S. MARIE    SUNNY     71  58  63 E8        30.07S
$$
MIZ004>006-011>014-085-041500-
CENTRAL UPPER MICHIGAN

CITY           SKY/WX    TMP DP  RH WIND       PRES   REMARKS
MANISTIQUE     SUNNY     71  59  66 E8        30.05R
ESCANABA       SUNNY     70  61  73 NE6       30.03R
MENOMINEE      SUNNY     70  61  73 E9        30.03S
SAWYER-GWINN   SUNNY     72  59  64 E5        30.07S
$$
MIZ001>003-009>011-084-041500-
WESTERN UPPER MICHIGAN

CITY           SKY/WX    TMP DP  RH WIND       PRES   REMARKS
IRON MOUNTAIN  SUNNY     69  62  78 CALM      30.05S
HOUGHTON       SUNNY     70  60  70 E5        30.07R
COPPER HARBOR    N/A     72  59  63 CALM      30.05F
IRONWOOD       SUNNY     70  64  83 SE8       30.01F
$$

ABBREVIATIONS USED IN REMARKS
   TC - TEMPERATURE IN CELSIUS
  WCI - WIND CHILL INDEX
   HX - HEAT INDEX
  VSB - VISIBILITY



USA.gov is the U.S. government's official web portal to all federal, state and local government web resources and services.